owner,sensor,date,latitude,longitude,relative_humidity,qcFlag 
COMPS,ioos:station:USF.COMPS:C12:1,2019-11-01T00:35:00,27.4980,-83.7220,82.52,11111222 
COMPS,ioos:station:USF.COMPS:C12:1,2019-11-01T01:35:00,27.4980,-83.7220,80.9,11111222 
COMPS,ioos:station:USF.COMPS:C12:1,2019-11-01T02:35:00,27.4980,-83.7220,82.63,11111222 
COMPS,ioos:station:USF.COMPS:C12:1,2019-11-01T03:35:00,27.4980,-83.7220,82.88,11111222 
COMPS,ioos:station:USF.COMPS:C12:1,2019-11-01T04:35:00,27.4980,-83.7220,86.85,11111222 
COMPS,ioos:station:USF.COMPS:C12:1,2019-11-01T05:35:00,27.4980,-83.7220,87.32,11111222 
COMPS,ioos:station:USF.COMPS:C12:1,2019-11-01T06:35:00,27.4980,-83.7220,89.1,11111222 
COMPS,ioos:station:USF.COMPS:C12:1,2019-11-01T07:35:00,27.4980,-83.7220,90.43,11111222 
COMPS,ioos:station:USF.COMPS:C12:1,2019-11-01T08:35:00,27.4980,-83.7220,87.65,11111222 
COMPS,ioos:station:USF.COMPS:C12:1,2019-11-01T09:35:00,27.4980,-83.7220,84.9,11111222 
COMPS,ioos:station:USF.COMPS:C12:1,2019-11-01T10:35:00,27.4980,-83.7220,84.29,11111222 
COMPS,ioos:station:USF.COMPS:C12:1,2019-11-01T11:35:00,27.4980,-83.7220,80.54,11111222 
COMPS,ioos:station:USF.COMPS:C12:1,2019-11-01T12:35:00,27.4980,-83.7220,78.6,11111222 
COMPS,ioos:station:USF.COMPS:C12:1,2019-11-01T13:35:00,27.4980,-83.7220,78.79,11111222 
COMPS,ioos:station:USF.COMPS:C12:1,2019-11-01T14:35:00,27.4980,-83.7220,78.6,11111222 
COMPS,ioos:station:USF.COMPS:C12:1,2019-11-01T15:35:00,27.4980,-83.7220,79.34,11111222 
COMPS,ioos:station:USF.COMPS:C12:1,2019-11-01T16:35:00,27.4980,-83.7220,79.45,11111222 
COMPS,ioos:station:USF.COMPS:C12:1,2019-11-01T17:35:00,27.4980,-83.7220,79.99,11111222 
COMPS,ioos:station:USF.COMPS:C12:1,2019-11-01T18:35:00,27.4980,-83.7220,80.07,11111222 
COMPS,ioos:station:USF.COMPS:C12:1,2019-11-01T19:35:00,27.4980,-83.7220,80.42,11111222 
COMPS,ioos:station:USF.COMPS:C12:1,2019-11-01T20:35:00,27.4980,-83.7220,81.83,11111222 
COMPS,ioos:station:USF.COMPS:C12:1,2019-11-01T21:35:00,27.4980,-83.7220,82.01,11111222 
COMPS,ioos:station:USF.COMPS:C12:1,2019-11-01T22:35:00,27.4980,-83.7220,83.94,11111222 
COMPS,ioos:station:USF.COMPS:C12:1,2019-11-01T23:35:00,27.4980,-83.7220,84.05,11111222 
COMPS,ioos:station:USF.COMPS:C12:1,2019-11-02T01:35:00,27.4980,-83.7220,81.67,11111222 
COMPS,ioos:station:USF.COMPS:C12:1,2019-11-02T02:35:00,27.4980,-83.7220,81.15,11111222 
COMPS,ioos:station:USF.COMPS:C12:1,2019-11-02T03:35:00,27.4980,-83.7220,81.59,11111222 
COMPS,ioos:station:USF.COMPS:C12:1,2019-11-02T04:35:00,27.4980,-83.7220,78.91,11111222 
COMPS,ioos:station:USF.COMPS:C12:1,2019-11-02T05:35:00,27.4980,-83.7220,77.73,11111222 
COMPS,ioos:station:USF.COMPS:C12:1,2019-11-02T06:35:00,27.4980,-83.7220,79.35,11111222 
COMPS,ioos:station:USF.COMPS:C12:1,2019-11-02T07:35:00,27.4980,-83.7220,80.36,11111222 
COMPS,ioos:station:USF.COMPS:C12:1,2019-11-02T08:35:00,27.4980,-83.7220,80.92,11111222 
COMPS,ioos:station:USF.COMPS:C12:1,2019-11-02T09:35:00,27.4980,-83.7220,81.65,11111222 
COMPS,ioos:station:USF.COMPS:C12:1,2019-11-02T10:35:00,27.4980,-83.7220,82.42,11111222 
COMPS,ioos:station:USF.COMPS:C12:1,2019-11-02T11:35:00,27.4980,-83.7220,82.27,11111222 
COMPS,ioos:station:USF.COMPS:C12:1,2019-11-02T12:35:00,27.4980,-83.7220,81.38,11111222 
COMPS,ioos:station:USF.COMPS:C12:1,2019-11-02T13:35:00,27.4980,-83.7220,78.47,11111222 
COMPS,ioos:station:USF.COMPS:C12:1,2019-11-02T14:35:00,27.4980,-83.7220,76.23,11111222 
COMPS,ioos:station:USF.COMPS:C12:1,2019-11-02T15:35:00,27.4980,-83.7220,81.68,11111222 
COMPS,ioos:station:USF.COMPS:C12:1,2019-11-02T16:35:00,27.4980,-83.7220,85.46,11111222 
COMPS,ioos:station:USF.COMPS:C12:1,2019-11-02T17:35:00,27.4980,-83.7220,89.61,11111222 
COMPS,ioos:station:USF.COMPS:C12:1,2019-11-02T18:35:00,27.4980,-83.7220,90.78,11111222 
COMPS,ioos:station:USF.COMPS:C12:1,2019-11-02T19:35:00,27.4980,-83.7220,89.45,11111222 
COMPS,ioos:station:USF.COMPS:C12:1,2019-11-02T20:35:00,27.4980,-83.7220,86.74,11111222 
COMPS,ioos:station:USF.COMPS:C12:1,2019-11-02T21:35:00,27.4980,-83.7220,84.71,11111222 
COMPS,ioos:station:USF.COMPS:C12:1,2019-11-02T22:35:00,27.4980,-83.7220,85.15,11111222 
COMPS,ioos:station:USF.COMPS:C12:1,2019-11-02T23:35:00,27.4980,-83.7220,81.98,11111222 
COMPS,ioos:station:USF.COMPS:C12:1,2019-11-03T00:35:00,27.4980,-83.7220,76.68,11111222 
COMPS,ioos:station:USF.COMPS:C12:1,2019-11-03T01:35:00,27.4980,-83.7220,73.7,11111222 
COMPS,ioos:station:USF.COMPS:C12:1,2019-11-03T02:35:00,27.4980,-83.7220,71.23,11111222 
COMPS,ioos:station:USF.COMPS:C12:1,2019-11-03T03:35:00,27.4980,-83.7220,73.83,11111222 
COMPS,ioos:station:USF.COMPS:C12:1,2019-11-03T04:35:00,27.4980,-83.7220,74.72,11111222 
COMPS,ioos:station:USF.COMPS:C12:1,2019-11-03T05:35:00,27.4980,-83.7220,76.49,11111222 
COMPS,ioos:station:USF.COMPS:C12:1,2019-11-03T06:35:00,27.4980,-83.7220,76.53,11111222 
COMPS,ioos:station:USF.COMPS:C12:1,2019-11-03T07:35:00,27.4980,-83.7220,78.13,11111222 
COMPS,ioos:station:USF.COMPS:C12:1,2019-11-03T08:35:00,27.4980,-83.7220,76.09,11111222 
COMPS,ioos:station:USF.COMPS:C12:1,2019-11-03T09:35:00,27.4980,-83.7220,78.51,11111222 
COMPS,ioos:station:USF.COMPS:C12:1,2019-11-03T10:35:00,27.4980,-83.7220,74.47,11111222 
COMPS,ioos:station:USF.COMPS:C12:1,2019-11-03T11:35:00,27.4980,-83.7220,75.25,11111222 
COMPS,ioos:station:USF.COMPS:C12:1,2019-11-03T12:35:00,27.4980,-83.7220,75.39,11111222 
COMPS,ioos:station:USF.COMPS:C12:1,2019-11-03T13:35:00,27.4980,-83.7220,73.94,11111222 
COMPS,ioos:station:USF.COMPS:C12:1,2019-11-03T14:35:00,27.4980,-83.7220,74.67,11111222 
COMPS,ioos:station:USF.COMPS:C12:1,2019-11-03T15:35:00,27.4980,-83.7220,75.4,11111222 
COMPS,ioos:station:USF.COMPS:C12:1,2019-11-03T16:35:00,27.4980,-83.7220,77.06,11111222 
COMPS,ioos:station:USF.COMPS:C12:1,2019-11-03T17:35:00,27.4980,-83.7220,76.86,11111222 
COMPS,ioos:station:USF.COMPS:C12:1,2019-11-03T18:35:00,27.4980,-83.7220,78.28,11111222 
COMPS,ioos:station:USF.COMPS:C12:1,2019-11-03T19:35:00,27.4980,-83.7220,79.26,11111222 
COMPS,ioos:station:USF.COMPS:C12:1,2019-11-03T20:35:00,27.4980,-83.7220,78.16,11111222 
COMPS,ioos:station:USF.COMPS:C12:1,2019-11-03T21:35:00,27.4980,-83.7220,76.74,11111222 
COMPS,ioos:station:USF.COMPS:C12:1,2019-11-03T22:35:00,27.4980,-83.7220,74.73,11111222 
COMPS,ioos:station:USF.COMPS:C12:1,2019-11-03T23:35:00,27.4980,-83.7220,74.37,11111222 
COMPS,ioos:station:USF.COMPS:C12:1,2019-11-04T01:35:00,27.4980,-83.7220,73.03,11111222 
COMPS,ioos:station:USF.COMPS:C12:1,2019-11-04T02:35:00,27.4980,-83.7220,73.69,11111222 
COMPS,ioos:station:USF.COMPS:C12:1,2019-11-04T03:35:00,27.4980,-83.7220,74.97,11111222 
COMPS,ioos:station:USF.COMPS:C12:1,2019-11-04T04:35:00,27.4980,-83.7220,76.06,11111222 
COMPS,ioos:station:USF.COMPS:C12:1,2019-11-04T05:35:00,27.4980,-83.7220,77.16,11111222 
COMPS,ioos:station:USF.COMPS:C12:1,2019-11-04T15:35:00,27.4980,-83.7220,78.63,11111222 
COMPS,ioos:station:USF.COMPS:C12:1,2019-11-04T16:35:00,27.4980,-83.7220,80.13,11111222 
COMPS,ioos:station:USF.COMPS:C12:1,2019-11-04T17:35:00,27.4980,-83.7220,80.8,11111222 
COMPS,ioos:station:USF.COMPS:C12:1,2019-11-04T18:35:00,27.4980,-83.7220,81.51,11111222 
COMPS,ioos:station:USF.COMPS:C12:1,2019-11-04T19:35:00,27.4980,-83.7220,81.34,11111222 
COMPS,ioos:station:USF.COMPS:C12:1,2019-11-04T20:35:00,27.4980,-83.7220,80.75,11111222 
COMPS,ioos:station:USF.COMPS:C12:1,2019-11-04T21:35:00,27.4980,-83.7220,78.72,11111222 
COMPS,ioos:station:USF.COMPS:C12:1,2019-11-04T22:35:00,27.4980,-83.7220,78.6,11111222 
COMPS,ioos:station:USF.COMPS:C12:1,2019-11-04T23:35:00,27.4980,-83.7220,79.38,11111222 
COMPS,ioos:station:USF.COMPS:C12:1,2019-11-05T00:35:00,27.4980,-83.7220,81.11,11111222 
COMPS,ioos:station:USF.COMPS:C12:1,2019-11-05T01:35:00,27.4980,-83.7220,79.88,11111222 
COMPS,ioos:station:USF.COMPS:C12:1,2019-11-05T02:35:00,27.4980,-83.7220,81.97,11111222 
COMPS,ioos:station:USF.COMPS:C12:1,2019-11-05T03:35:00,27.4980,-83.7220,82.27,11111222 
COMPS,ioos:station:USF.COMPS:C12:1,2019-11-05T04:35:00,27.4980,-83.7220,83.26,11111222 
COMPS,ioos:station:USF.COMPS:C12:1,2019-11-05T05:35:00,27.4980,-83.7220,84.92,11111222 
COMPS,ioos:station:USF.COMPS:C12:1,2019-11-05T06:35:00,27.4980,-83.7220,87.43,11111222 
COMPS,ioos:station:USF.COMPS:C12:1,2019-11-05T07:35:00,27.4980,-83.7220,88.37,11111222 
COMPS,ioos:station:USF.COMPS:C12:1,2019-11-05T08:35:00,27.4980,-83.7220,87.04,11111222 
COMPS,ioos:station:USF.COMPS:C12:1,2019-11-05T09:35:00,27.4980,-83.7220,84.21,11111222 
COMPS,ioos:station:USF.COMPS:C12:1,2019-11-05T10:35:00,27.4980,-83.7220,79.78,11111222 
COMPS,ioos:station:USF.COMPS:C12:1,2019-11-05T11:35:00,27.4980,-83.7220,80.19,11111222 
COMPS,ioos:station:USF.COMPS:C12:1,2019-11-05T12:35:00,27.4980,-83.7220,79.56,11111222 
COMPS,ioos:station:USF.COMPS:C12:1,2019-11-05T13:35:00,27.4980,-83.7220,77.92,11111222 
COMPS,ioos:station:USF.COMPS:C12:1,2019-11-05T14:35:00,27.4980,-83.7220,82.34,11111222 
COMPS,ioos:station:USF.COMPS:C12:1,2019-11-05T15:35:00,27.4980,-83.7220,81.9,11111222 
COMPS,ioos:station:USF.COMPS:C12:1,2019-11-05T16:35:00,27.4980,-83.7220,80.53,11111222 
COMPS,ioos:station:USF.COMPS:C12:1,2019-11-05T17:35:00,27.4980,-83.7220,81.88,11111222 
COMPS,ioos:station:USF.COMPS:C12:1,2019-11-05T18:35:00,27.4980,-83.7220,78.86,11111222 
COMPS,ioos:station:USF.COMPS:C12:1,2019-11-05T19:35:00,27.4980,-83.7220,77.83,11111222 
COMPS,ioos:station:USF.COMPS:C12:1,2019-11-05T20:35:00,27.4980,-83.7220,72.75,11111222 
COMPS,ioos:station:USF.COMPS:C12:1,2019-11-05T21:35:00,27.4980,-83.7220,75.84,11111222 
COMPS,ioos:station:USF.COMPS:C12:1,2019-11-05T22:35:00,27.4980,-83.7220,79.59,11111222 
COMPS,ioos:station:USF.COMPS:C12:1,2019-11-05T23:35:00,27.4980,-83.7220,79.62,11111222 
COMPS,ioos:station:USF.COMPS:C12:1,2019-11-06T00:35:00,27.4980,-83.7220,82.43,11111222 
COMPS,ioos:station:USF.COMPS:C12:1,2019-11-06T01:35:00,27.4980,-83.7220,84.58,11111222 
COMPS,ioos:station:USF.COMPS:C12:1,2019-11-06T02:35:00,27.4980,-83.7220,86.59,11111222 
COMPS,ioos:station:USF.COMPS:C12:1,2019-11-06T03:35:00,27.4980,-83.7220,83.17,11111222 
COMPS,ioos:station:USF.COMPS:C12:1,2019-11-06T04:35:00,27.4980,-83.7220,86.02,11111222 
COMPS,ioos:station:USF.COMPS:C12:1,2019-11-06T05:35:00,27.4980,-83.7220,85.92,11111222 
COMPS,ioos:station:USF.COMPS:C12:1,2019-11-06T06:35:00,27.4980,-83.7220,82.59,11111222 
COMPS,ioos:station:USF.COMPS:C12:1,2019-11-06T07:35:00,27.4980,-83.7220,83.07,11111222 
COMPS,ioos:station:USF.COMPS:C12:1,2019-11-06T08:35:00,27.4980,-83.7220,84.05,11111222 
COMPS,ioos:station:USF.COMPS:C12:1,2019-11-06T09:35:00,27.4980,-83.7220,81.99,11111222 
COMPS,ioos:station:USF.COMPS:C12:1,2019-11-06T10:35:00,27.4980,-83.7220,86.19,11111222 
COMPS,ioos:station:USF.COMPS:C12:1,2019-11-06T11:35:00,27.4980,-83.7220,86.65,11111222 
COMPS,ioos:station:USF.COMPS:C12:1,2019-11-06T12:35:00,27.4980,-83.7220,85.17,11111222 
COMPS,ioos:station:USF.COMPS:C12:1,2019-11-06T13:35:00,27.4980,-83.7220,84.23,11111222 
COMPS,ioos:station:USF.COMPS:C12:1,2019-11-06T14:35:00,27.4980,-83.7220,83.47,11111222 
COMPS,ioos:station:USF.COMPS:C12:1,2019-11-06T15:35:00,27.4980,-83.7220,84.82,11111222 
COMPS,ioos:station:USF.COMPS:C12:1,2019-11-06T16:35:00,27.4980,-83.7220,86.92,11111222 
COMPS,ioos:station:USF.COMPS:C12:1,2019-11-06T17:35:00,27.4980,-83.7220,89.05,11111222 
COMPS,ioos:station:USF.COMPS:C12:1,2019-11-06T18:35:00,27.4980,-83.7220,88.39,11111222 
COMPS,ioos:station:USF.COMPS:C12:1,2019-11-06T19:35:00,27.4980,-83.7220,87.3,11111222 
COMPS,ioos:station:USF.COMPS:C12:1,2019-11-06T20:35:00,27.4980,-83.7220,85.7,11111222 
COMPS,ioos:station:USF.COMPS:C12:1,2019-11-06T21:35:00,27.4980,-83.7220,86.26,11111222 
COMPS,ioos:station:USF.COMPS:C12:1,2019-11-06T22:35:00,27.4980,-83.7220,87.72,11111222 
COMPS,ioos:station:USF.COMPS:C12:1,2019-11-06T23:35:00,27.4980,-83.7220,88.28,11111222 
COMPS,ioos:station:USF.COMPS:C12:1,2019-11-07T00:35:00,27.4980,-83.7220,86.05,11111222 
COMPS,ioos:station:USF.COMPS:C12:1,2019-11-07T01:35:00,27.4980,-83.7220,84.38,11111222 
COMPS,ioos:station:USF.COMPS:C12:1,2019-11-07T02:35:00,27.4980,-83.7220,79.62,11111222 
COMPS,ioos:station:USF.COMPS:C12:1,2019-11-07T03:35:00,27.4980,-83.7220,82.52,11111222 
COMPS,ioos:station:USF.COMPS:C12:1,2019-11-07T04:35:00,27.4980,-83.7220,83.7,11111222 
COMPS,ioos:station:USF.COMPS:C12:1,2019-11-07T05:35:00,27.4980,-83.7220,85.1,11111222 
COMPS,ioos:station:USF.COMPS:C12:1,2019-11-07T06:35:00,27.4980,-83.7220,85.84,11111222 
COMPS,ioos:station:USF.COMPS:C12:1,2019-11-07T07:35:00,27.4980,-83.7220,86.29,11111222 
COMPS,ioos:station:USF.COMPS:C12:1,2019-11-07T08:35:00,27.4980,-83.7220,86.32,11111222 
COMPS,ioos:station:USF.COMPS:C12:1,2019-11-07T09:35:00,27.4980,-83.7220,86.78,11111222 
COMPS,ioos:station:USF.COMPS:C12:1,2019-11-07T10:35:00,27.4980,-83.7220,86.97,11111222 
COMPS,ioos:station:USF.COMPS:C12:1,2019-11-07T11:35:00,27.4980,-83.7220,86.47,11111222 
COMPS,ioos:station:USF.COMPS:C12:1,2019-11-07T12:35:00,27.4980,-83.7220,86.22,11111222 
COMPS,ioos:station:USF.COMPS:C12:1,2019-11-07T13:35:00,27.4980,-83.7220,84.52,11111222 
COMPS,ioos:station:USF.COMPS:C12:1,2019-11-07T14:35:00,27.4980,-83.7220,85.16,11111222 
COMPS,ioos:station:USF.COMPS:C12:1,2019-11-07T15:35:00,27.4980,-83.7220,85.08,11111222 
COMPS,ioos:station:USF.COMPS:C12:1,2019-11-07T16:35:00,27.4980,-83.7220,84.96,11111222 
COMPS,ioos:station:USF.COMPS:C12:1,2019-11-07T17:35:00,27.4980,-83.7220,85.31,11111222 
COMPS,ioos:station:USF.COMPS:C12:1,2019-11-07T18:35:00,27.4980,-83.7220,84.52,11111222 
COMPS,ioos:station:USF.COMPS:C12:1,2019-11-07T19:35:00,27.4980,-83.7220,82.41,11111222 
COMPS,ioos:station:USF.COMPS:C12:1,2019-11-07T20:35:00,27.4980,-83.7220,80.71,11111222 
COMPS,ioos:station:USF.COMPS:C12:1,2019-11-07T21:35:00,27.4980,-83.7220,79.89,11111222 
COMPS,ioos:station:USF.COMPS:C12:1,2019-11-07T22:35:00,27.4980,-83.7220,80.17,11111222 
COMPS,ioos:station:USF.COMPS:C12:1,2019-11-07T23:35:00,27.4980,-83.7220,82.55,11111222 
COMPS,ioos:station:USF.COMPS:C12:1,2019-11-08T00:35:00,27.4980,-83.7220,84.12,11111222 
COMPS,ioos:station:USF.COMPS:C12:1,2019-11-08T01:35:00,27.4980,-83.7220,83.44,11111222 
COMPS,ioos:station:USF.COMPS:C12:1,2019-11-08T02:35:00,27.4980,-83.7220,83.49,11111222 
COMPS,ioos:station:USF.COMPS:C12:1,2019-11-08T03:35:00,27.4980,-83.7220,82.52,11111222 
COMPS,ioos:station:USF.COMPS:C12:1,2019-11-08T04:35:00,27.4980,-83.7220,82.99,11111222 
COMPS,ioos:station:USF.COMPS:C12:1,2019-11-08T05:35:00,27.4980,-83.7220,82.03,11111222 
COMPS,ioos:station:USF.COMPS:C12:1,2019-11-08T06:35:00,27.4980,-83.7220,82.46,11111222 
COMPS,ioos:station:USF.COMPS:C12:1,2019-11-08T07:35:00,27.4980,-83.7220,82.62,11111222 
COMPS,ioos:station:USF.COMPS:C12:1,2019-11-08T08:35:00,27.4980,-83.7220,83.1,11111222 
COMPS,ioos:station:USF.COMPS:C12:1,2019-11-08T09:35:00,27.4980,-83.7220,83.5,11111222 
COMPS,ioos:station:USF.COMPS:C12:1,2019-11-08T10:35:00,27.4980,-83.7220,83.75,11111222 
COMPS,ioos:station:USF.COMPS:C12:1,2019-11-08T11:35:00,27.4980,-83.7220,84.06,11111222 
COMPS,ioos:station:USF.COMPS:C12:1,2019-11-08T12:35:00,27.4980,-83.7220,83.03,11111222 
COMPS,ioos:station:USF.COMPS:C12:1,2019-11-08T13:35:00,27.4980,-83.7220,81.76,11111222 
COMPS,ioos:station:USF.COMPS:C12:1,2019-11-08T14:35:00,27.4980,-83.7220,81.82,11111222 
COMPS,ioos:station:USF.COMPS:C12:1,2019-11-08T15:35:00,27.4980,-83.7220,81.76,11111222 
COMPS,ioos:station:USF.COMPS:C12:1,2019-11-08T16:35:00,27.4980,-83.7220,80.74,11111222 
COMPS,ioos:station:USF.COMPS:C12:1,2019-11-08T17:35:00,27.4980,-83.7220,79.58,11111222 
COMPS,ioos:station:USF.COMPS:C12:1,2019-11-08T18:35:00,27.4980,-83.7220,77.77,11111222 
COMPS,ioos:station:USF.COMPS:C12:1,2019-11-08T19:35:00,27.4980,-83.7220,79.61,11111222 
COMPS,ioos:station:USF.COMPS:C12:1,2019-11-08T20:35:00,27.4980,-83.7220,83.34,11111222 
COMPS,ioos:station:USF.COMPS:C12:1,2019-11-08T21:35:00,27.4980,-83.7220,84.43,11111222 
COMPS,ioos:station:USF.COMPS:C12:1,2019-11-08T22:35:00,27.4980,-83.7220,85.62,11111222 
COMPS,ioos:station:USF.COMPS:C12:1,2019-11-08T23:35:00,27.4980,-83.7220,85.88,11111222 
COMPS,ioos:station:USF.COMPS:C12:1,2019-11-09T01:35:00,27.4980,-83.7220,86.13,11111222 
COMPS,ioos:station:USF.COMPS:C12:1,2019-11-09T02:35:00,27.4980,-83.7220,87.21,11111222 
COMPS,ioos:station:USF.COMPS:C12:1,2019-11-09T03:35:00,27.4980,-83.7220,87.44,11111222 
COMPS,ioos:station:USF.COMPS:C12:1,2019-11-09T04:35:00,27.4980,-83.7220,87.32,11111222 
COMPS,ioos:station:USF.COMPS:C12:1,2019-11-09T05:35:00,27.4980,-83.7220,87.04,11111222 
COMPS,ioos:station:USF.COMPS:C12:1,2019-11-09T06:35:00,27.4980,-83.7220,88.19,11111222 
COMPS,ioos:station:USF.COMPS:C12:1,2019-11-09T07:35:00,27.4980,-83.7220,88.14,11111222 
COMPS,ioos:station:USF.COMPS:C12:1,2019-11-09T08:35:00,27.4980,-83.7220,88.2,11111222 
COMPS,ioos:station:USF.COMPS:C12:1,2019-11-09T09:35:00,27.4980,-83.7220,88.4,11111222 
COMPS,ioos:station:USF.COMPS:C12:1,2019-11-09T10:35:00,27.4980,-83.7220,88.05,11111222 
COMPS,ioos:station:USF.COMPS:C12:1,2019-11-09T11:35:00,27.4980,-83.7220,86.67,11111222 
COMPS,ioos:station:USF.COMPS:C12:1,2019-11-09T12:35:00,27.4980,-83.7220,85.42,11111222 
COMPS,ioos:station:USF.COMPS:C12:1,2019-11-09T13:35:00,27.4980,-83.7220,84.03,11111222 
COMPS,ioos:station:USF.COMPS:C12:1,2019-11-09T14:35:00,27.4980,-83.7220,81.22,11111222 
COMPS,ioos:station:USF.COMPS:C12:1,2019-11-09T15:35:00,27.4980,-83.7220,79.16,11111222 
COMPS,ioos:station:USF.COMPS:C12:1,2019-11-09T16:35:00,27.4980,-83.7220,79.46,11111222 
COMPS,ioos:station:USF.COMPS:C12:1,2019-11-09T17:35:00,27.4980,-83.7220,76.53,11111222 
COMPS,ioos:station:USF.COMPS:C12:1,2019-11-09T18:35:00,27.4980,-83.7220,75.53,11111222 
COMPS,ioos:station:USF.COMPS:C12:1,2019-11-09T19:35:00,27.4980,-83.7220,76.97,11111222 
COMPS,ioos:station:USF.COMPS:C12:1,2019-11-09T20:35:00,27.4980,-83.7220,78.06,11111222 
COMPS,ioos:station:USF.COMPS:C12:1,2019-11-09T21:35:00,27.4980,-83.7220,78.08,11111222 
COMPS,ioos:station:USF.COMPS:C12:1,2019-11-09T22:35:00,27.4980,-83.7220,75.93,11111222 
COMPS,ioos:station:USF.COMPS:C12:1,2019-11-09T23:35:00,27.4980,-83.7220,78.07,11111222 
COMPS,ioos:station:USF.COMPS:C12:1,2019-11-10T00:35:00,27.4980,-83.7220,73.96,11111222 
COMPS,ioos:station:USF.COMPS:C12:1,2019-11-10T01:35:00,27.4980,-83.7220,73.65,11111222 
COMPS,ioos:station:USF.COMPS:C12:1,2019-11-10T02:35:00,27.4980,-83.7220,74.25,11111222 
COMPS,ioos:station:USF.COMPS:C12:1,2019-11-10T03:35:00,27.4980,-83.7220,74.87,11111222 
COMPS,ioos:station:USF.COMPS:C12:1,2019-11-10T04:35:00,27.4980,-83.7220,76.27,11111222 
COMPS,ioos:station:USF.COMPS:C12:1,2019-11-10T05:35:00,27.4980,-83.7220,77.52,11111222 
COMPS,ioos:station:USF.COMPS:C12:1,2019-11-10T06:35:00,27.4980,-83.7220,78.67,11111222 
COMPS,ioos:station:USF.COMPS:C12:1,2019-11-10T07:35:00,27.4980,-83.7220,77.45,11111222 
COMPS,ioos:station:USF.COMPS:C12:1,2019-11-10T08:35:00,27.4980,-83.7220,77.02,11111222 
COMPS,ioos:station:USF.COMPS:C12:1,2019-11-10T09:35:00,27.4980,-83.7220,79.58,11111222 
COMPS,ioos:station:USF.COMPS:C12:1,2019-11-10T10:35:00,27.4980,-83.7220,79.37,11111222 
COMPS,ioos:station:USF.COMPS:C12:1,2019-11-10T11:35:00,27.4980,-83.7220,81.57,11111222 
COMPS,ioos:station:USF.COMPS:C12:1,2019-11-10T12:35:00,27.4980,-83.7220,81.99,11111222 
COMPS,ioos:station:USF.COMPS:C12:1,2019-11-10T13:35:00,27.4980,-83.7220,80.94,11111222 
COMPS,ioos:station:USF.COMPS:C12:1,2019-11-10T14:35:00,27.4980,-83.7220,81.73,11111222 
COMPS,ioos:station:USF.COMPS:C12:1,2019-11-10T15:35:00,27.4980,-83.7220,81.18,11111222 
COMPS,ioos:station:USF.COMPS:C12:1,2019-11-10T16:35:00,27.4980,-83.7220,80.57,11111222 
COMPS,ioos:station:USF.COMPS:C12:1,2019-11-10T17:35:00,27.4980,-83.7220,80.66,11111222 
COMPS,ioos:station:USF.COMPS:C12:1,2019-11-10T18:35:00,27.4980,-83.7220,81.11,11111222 
COMPS,ioos:station:USF.COMPS:C12:1,2019-11-10T19:35:00,27.4980,-83.7220,80.78,11111222 
COMPS,ioos:station:USF.COMPS:C12:1,2019-11-10T20:35:00,27.4980,-83.7220,77.46,11111222 
COMPS,ioos:station:USF.COMPS:C12:1,2019-11-10T21:35:00,27.4980,-83.7220,75.27,11111222 
COMPS,ioos:station:USF.COMPS:C12:1,2019-11-10T22:35:00,27.4980,-83.7220,69.21,11111222 
COMPS,ioos:station:USF.COMPS:C12:1,2019-11-10T23:35:00,27.4980,-83.7220,59.41,11111222 
COMPS,ioos:station:USF.COMPS:C12:1,2019-11-11T00:35:00,27.4980,-83.7220,59.89,11111222 
COMPS,ioos:station:USF.COMPS:C12:1,2019-11-11T01:35:00,27.4980,-83.7220,61.41,11111222 
COMPS,ioos:station:USF.COMPS:C12:1,2019-11-11T02:35:00,27.4980,-83.7220,64.85,11111222 
COMPS,ioos:station:USF.COMPS:C12:1,2019-11-11T03:35:00,27.4980,-83.7220,68.71,11111222 
COMPS,ioos:station:USF.COMPS:C12:1,2019-11-11T04:35:00,27.4980,-83.7220,69.52,11111222 
COMPS,ioos:station:USF.COMPS:C12:1,2019-11-11T05:35:00,27.4980,-83.7220,72.35,11111222 
COMPS,ioos:station:USF.COMPS:C12:1,2019-11-11T06:35:00,27.4980,-83.7220,70.79,11111222 
COMPS,ioos:station:USF.COMPS:C12:1,2019-11-11T07:35:00,27.4980,-83.7220,72.95,11111222 
COMPS,ioos:station:USF.COMPS:C12:1,2019-11-11T08:35:00,27.4980,-83.7220,73.42,11111222 
COMPS,ioos:station:USF.COMPS:C12:1,2019-11-11T09:35:00,27.4980,-83.7220,75.57,11111222 
COMPS,ioos:station:USF.COMPS:C12:1,2019-11-11T10:35:00,27.4980,-83.7220,76.11,11111222 
COMPS,ioos:station:USF.COMPS:C12:1,2019-11-11T11:35:00,27.4980,-83.7220,76.62,11111222 
COMPS,ioos:station:USF.COMPS:C12:1,2019-11-11T12:35:00,27.4980,-83.7220,75.56,11111222 
COMPS,ioos:station:USF.COMPS:C12:1,2019-11-11T13:35:00,27.4980,-83.7220,73.09,11111222 
COMPS,ioos:station:USF.COMPS:C12:1,2019-11-11T14:35:00,27.4980,-83.7220,71.01,11111222 
COMPS,ioos:station:USF.COMPS:C12:1,2019-11-11T15:35:00,27.4980,-83.7220,67.38,11111222 
COMPS,ioos:station:USF.COMPS:C12:1,2019-11-11T16:35:00,27.4980,-83.7220,67.61,11111222 
COMPS,ioos:station:USF.COMPS:C12:1,2019-11-11T17:35:00,27.4980,-83.7220,66.07,11111222 
COMPS,ioos:station:USF.COMPS:C12:1,2019-11-11T18:35:00,27.4980,-83.7220,67.02,11111222 
COMPS,ioos:station:USF.COMPS:C12:1,2019-11-11T19:35:00,27.4980,-83.7220,68.82,11111222 
COMPS,ioos:station:USF.COMPS:C12:1,2019-11-11T20:35:00,27.4980,-83.7220,69.05,11111222 
COMPS,ioos:station:USF.COMPS:C12:1,2019-11-11T21:35:00,27.4980,-83.7220,67.72,11111222 
COMPS,ioos:station:USF.COMPS:C12:1,2019-11-11T22:35:00,27.4980,-83.7220,66.81,11111222 
COMPS,ioos:station:USF.COMPS:C12:1,2019-11-11T23:35:00,27.4980,-83.7220,64.94,11111222 
COMPS,ioos:station:USF.COMPS:C12:1,2019-11-12T00:35:00,27.4980,-83.7220,61.49,11111222 
COMPS,ioos:station:USF.COMPS:C12:1,2019-11-12T01:35:00,27.4980,-83.7220,60.3,11111222 
COMPS,ioos:station:USF.COMPS:C12:1,2019-11-12T02:35:00,27.4980,-83.7220,62.28,11111222 
COMPS,ioos:station:USF.COMPS:C12:1,2019-11-12T03:35:00,27.4980,-83.7220,62.08,11111222 
COMPS,ioos:station:USF.COMPS:C12:1,2019-11-12T04:35:00,27.4980,-83.7220,63.06,11111222 
COMPS,ioos:station:USF.COMPS:C12:1,2019-11-12T05:35:00,27.4980,-83.7220,65.62,11111222 
COMPS,ioos:station:USF.COMPS:C12:1,2019-11-12T06:35:00,27.4980,-83.7220,70.41,11111222 
COMPS,ioos:station:USF.COMPS:C12:1,2019-11-12T07:35:00,27.4980,-83.7220,68.29,11111222 
COMPS,ioos:station:USF.COMPS:C12:1,2019-11-12T08:35:00,27.4980,-83.7220,72.19,11111222 
COMPS,ioos:station:USF.COMPS:C12:1,2019-11-12T09:35:00,27.4980,-83.7220,76.56,11111222 
COMPS,ioos:station:USF.COMPS:C12:1,2019-11-12T10:35:00,27.4980,-83.7220,77.49,11111222 
COMPS,ioos:station:USF.COMPS:C12:1,2019-11-12T11:35:00,27.4980,-83.7220,76.46,11111222 
COMPS,ioos:station:USF.COMPS:C12:1,2019-11-12T12:35:00,27.4980,-83.7220,74.12,11111222 
COMPS,ioos:station:USF.COMPS:C12:1,2019-11-12T13:35:00,27.4980,-83.7220,70.1,11111222 
COMPS,ioos:station:USF.COMPS:C12:1,2019-11-12T14:35:00,27.4980,-83.7220,67.48,11111222 
COMPS,ioos:station:USF.COMPS:C12:1,2019-11-12T15:35:00,27.4980,-83.7220,67.89,11111222 
COMPS,ioos:station:USF.COMPS:C12:1,2019-11-12T16:35:00,27.4980,-83.7220,69.61,11111222 
COMPS,ioos:station:USF.COMPS:C12:1,2019-11-12T17:35:00,27.4980,-83.7220,70.16,11111222 
COMPS,ioos:station:USF.COMPS:C12:1,2019-11-12T18:35:00,27.4980,-83.7220,72.86,11111222 
COMPS,ioos:station:USF.COMPS:C12:1,2019-11-12T19:35:00,27.4980,-83.7220,74.45,11111222 